Location: Unspecified
(0.0000°N, 0.0000°E)
Time: 01:35:43
(UTC+00:00)

Vanguard 1 Rocket - Visible Passes

Search period start: 20 February 2017 00:00
Search period end: 02 March 2017 00:00
Orbit: 650 x 4227 km, 34.3° (Epoch: 18 February)

Date Brightness Start Highest point End Pass type
(mag) Time Alt. Az. Time Alt. Az. Time Alt. Az.
20 Feb 10.8 18:26:19 10° WSW 18:52:26 64° NW 19:11:20 10° NE visible
20 Feb 10.8 21:08:56 10° W 21:24:29 23° NW 21:30:44 18° N visible
21 Feb 7.5 04:53:33 24° NNW 04:55:45 44° NE 05:00:20 10° ESE visible
21 Feb 10.8 19:47:53 10° W 20:10:00 37° NW 20:23:53 13° NNE visible
22 Feb 9.4 03:46:42 14° ENE 03:46:42 14° ENE 03:47:47 10° ENE visible
22 Feb 11.0 18:29:50 10° WSW 18:55:07 54° NW 19:14:04 10° NE visible
22 Feb 10.9 21:15:07 10° WNW 21:28:14 19° NNW 21:34:18 15° N visible
23 Feb 6.6 04:57:11 35° NW 04:59:02 85° NE 05:03:49 10° SE visible
23 Feb 10.9 19:52:46 10° W 20:13:15 30° NW 20:27:23 11° NNE visible
24 Feb 8.9 03:50:22 21° ENE 03:50:22 21° ENE 03:52:12 10° E visible
24 Feb 11.1 18:33:44 10° WSW 18:57:59 45° NW 19:16:45 10° NNE visible
24 Feb 11.0 21:21:49 10° WNW 21:32:23 15° NNW 21:37:46 13° N visible
25 Feb 7.0 05:00:51 34° W 05:02:20 50° SW 05:06:55 10° SE visible
25 Feb 11.0 19:58:14 10° W 20:16:51 25° NNW 20:30:31 10° NNE visible
26 Feb 8.7 03:54:01 26° ESE 03:54:01 26° ESE 03:55:59 10° ESE visible
26 Feb 11.1 18:38:07 10° W 19:01:07 38° NW 19:19:25 10° NNE visible
26 Feb 11.1 21:28:33 10° NW 21:36:54 13° NNW 21:41:06 12° N visible
27 Feb 7.8 05:04:29 24° WSW 05:05:41 27° SW 05:09:36 10° SSE visible
27 Feb 11.1 20:04:15 10° WNW 20:20:53 21° NNW 20:33:25 10° NNE visible
28 Feb 8.7 03:57:39 24° SE 03:57:39 24° SE 03:59:23 10° SE visible
28 Feb 11.2 18:43:00 10° W 19:04:36 32° NNW 19:22:08 10° NNE visible
28 Feb 11.1 21:34:38 10° NW 21:41:40 13° NNW 21:44:19 12° N visible
01 Mar 8.5 05:08:05 14° SW 05:09:03 15° SW 05:11:43 10° S visible
01 Mar 11.1 20:10:35 10° WNW 20:25:18 19° NNW 20:36:37 10° NNE visible
